Terug naar catalogus

METEOR 2-21 DEB

LostPO
NORAD 40711·DEBRIS·🇷🇺 Russia

Gelanceerd Aug 31, 1993 vanaf Plesetsk Cosmodrome

Loading…

Volgende Passages (komende 24 uur)

TLE

VerouderdSource: Space-Track

Epoch: Oct 21, 2022, 02:54 UTC

1 40711U 93055D   22294.12112587  .00002655  00000-0  18409-2 0  9993
2 40711  82.5463 219.8727 0010090 151.3089 208.8636 13.98576998913939

Volg METEOR 2-21 DEB in realtime met AllMySat

Download on the App Store